Staunton, VA

1:55 AM EST on December 15, 2017 (GMT -0500)
Shenandoah Valley Regional

Weather History for KSHD - March, 2013

Change the Weather History Date:

Thursday, March 7, 2013

  Actual Average Record
Temperature  
Mean Temperature 39 °F -  
Max Temperature 42 °F 51 °F 78 °F (2009)
Min Temperature 36 °F 30 °F 1 °F (2015)
Degree Days  
Heating Degree Days 26    
Moisture  
Dew Point 26 °F    
Average Humidity 60    
Maximum Humidity 78    
Minimum Humidity 47    
Precipitation  
Precipitation 0.00 in - - ()
Sea Level Pressure  
Sea Level Pressure 30.14 in    
Wind  
Wind Speed 8 mph (NNW)    
Max Wind Speed 15 mph    
Max Gust Speed 24 mph    
Visibility 10 miles    
Events      
Averages and records for this station are not official NWS values.
T = Trace of Precipitation, MM = Missing Value Source: NWS Daily Summary

Daily Weather History Graph

Daily Weather History Graph

Search for Another Location

Airport or City:

Trip Planner

Search our weather history database for the weather conditions in past years. The results will help you decide how hot, cold, wet, or windy it might be!

Date:

Astronomy

Mar. 07, 2013 Rise Set
Actual Time 6:38 AM EST 6:15 PM EST
Civil Twilight 6:12 AM EST 6:41 PM EST
Nautical Twilight 5:41 AM EST 7:12 PM EST
Astronomical Twilight 5:10 AM EST 7:42 PM EST
Moon 3:33 AM EST (3/7) 2:03 PM EST (3/7)
Length of Visible Light 12h 29m
Length of Day
11h 36m
Waning Crescent, 20% of the Moon is Illuminated
Mar 7
Waning Crescent
Mar 11
New
Mar 19
First Quarter
Mar 27
Full
Apr 3
Last Quarter

Hourly Weather History & Observations

Time (EST) Temp. Windchill Dew Point Humidity Pressure Visibility Wind Dir Wind Speed Gust Speed Precip Events Conditions
12:15 AM 39.4 °F 31.1 °F 26.1 °F 59% 30.05 in 10.0 mi NNW 15.0 mph 21.9 mph N/A   Overcast
12:35 AM 39.4 °F 31.1 °F 25.5 °F 58% 30.05 in 10.0 mi NNW 15.0 mph 19.6 mph N/A   Overcast
12:55 AM 39.2 °F 31.2 °F 25.7 °F 58% 30.05 in 10.0 mi NNW 13.8 mph 19.6 mph N/A   Overcast
1:15 AM 39.6 °F 32.5 °F 25.3 °F 57% 30.05 in 10.0 mi NNW 11.5 mph - N/A   Overcast
1:35 AM 39.2 °F 33.0 °F 25.9 °F 59% 30.06 in 10.0 mi North 9.2 mph - N/A   Overcast
1:55 AM 38.8 °F 33.8 °F 26.6 °F 61% 30.06 in 10.0 mi NNW 6.9 mph - N/A   Overcast
2:15 AM 38.8 °F 35.4 °F 26.6 °F 61% 30.06 in 10.0 mi NNW 4.6 mph - N/A   Overcast
2:35 AM 38.3 °F 34.8 °F 27.5 °F 65% 30.06 in 10.0 mi NNW 4.6 mph - N/A   Overcast
2:55 AM 38.5 °F 33.4 °F 27.3 °F 64% 30.05 in 10.0 mi North 6.9 mph - N/A   Overcast
3:15 AM 38.7 °F 34.3 °F 27.3 °F 64% 30.05 in 10.0 mi NNW 5.8 mph - N/A   Overcast
3:35 AM 38.5 °F 36.1 °F 27.5 °F 65% 30.05 in 10.0 mi North 3.5 mph - N/A   Overcast
3:55 AM 37.6 °F - 28.4 °F 69% 30.05 in 10.0 mi Calm Calm - N/A   Overcast
4:15 AM 37.8 °F - 27.9 °F 67% 30.06 in 10.0 mi Calm Calm - N/A   Overcast
4:35 AM 37.4 °F - 28.6 °F 70% 30.07 in 10.0 mi Calm Calm - N/A   Overcast
4:55 AM 36.0 °F - 29.8 °F 78% 30.07 in 10.0 mi Calm Calm - N/A   Overcast
5:15 AM 36.5 °F - 29.1 °F 75% 30.08 in 10.0 mi Calm Calm - N/A   Overcast
5:35 AM 37.4 °F - 28.2 °F 69% 30.08 in 10.0 mi Calm Calm - N/A   Overcast
5:55 AM 37.4 °F 33.8 °F 28.6 °F 70% 30.08 in 10.0 mi NNW 4.6 mph - N/A   Overcast
6:15 AM 37.9 °F 33.5 °F 28.2 °F 68% 30.09 in 10.0 mi NNW 5.8 mph - N/A   Overcast
6:35 AM 38.7 °F 35.2 °F 28.0 °F 66% 30.09 in 10.0 mi North 4.6 mph - N/A   Overcast
6:55 AM 37.9 °F - 28.8 °F 70% 30.10 in 10.0 mi Calm Calm - N/A   Overcast
7:15 AM 37.9 °F - 29.1 °F 71% 30.11 in 10.0 mi Calm Calm - N/A   Overcast
7:35 AM 38.3 °F - 29.1 °F 70% 30.12 in 10.0 mi Calm Calm - N/A   Overcast
7:55 AM 38.3 °F 33.9 °F 29.3 °F 70% 30.13 in 10.0 mi North 5.8 mph - N/A   Overcast
8:15 AM 38.3 °F - 29.3 °F 70% 30.13 in 10.0 mi Calm Calm - N/A   Overcast
8:35 AM 39.4 °F 32.7 °F 28.4 °F 65% 30.14 in 10.0 mi NNW 10.4 mph - N/A   Overcast
8:55 AM 39.7 °F 33.2 °F 28.2 °F 63% 30.14 in 10.0 mi NW 10.4 mph 16.1 mph N/A   Overcast
9:15 AM 40.1 °F 34.7 °F 28.0 °F 62% 30.15 in 10.0 mi NNW 8.1 mph - N/A   Overcast
9:35 AM 40.1 °F 35.3 °F 28.4 °F 63% 30.15 in 10.0 mi NNW 6.9 mph - N/A   Overcast
9:55 AM 40.6 °F 34.8 °F 27.9 °F 60% 30.16 in 10.0 mi NNW 9.2 mph - N/A   Overcast
10:15 AM 40.5 °F 33.2 °F 27.7 °F 60% 30.16 in 10.0 mi NNW 12.7 mph 17.3 mph N/A   Overcast
10:35 AM 40.6 °F 33.0 °F 27.5 °F 59% 30.16 in 10.0 mi North 13.8 mph - N/A   Overcast
10:55 AM 40.6 °F 33.8 °F 26.4 °F 57% 30.17 in 10.0 mi NNW 11.5 mph - N/A   Overcast
11:15 AM 40.8 °F 34.1 °F 26.2 °F 56% 30.17 in 10.0 mi NW 11.5 mph - N/A   Overcast
11:35 AM 41.0 °F 35.2 °F 25.3 °F 54% 30.17 in 10.0 mi NW 9.2 mph - N/A   Overcast
11:55 AM 41.2 °F 35.0 °F 25.7 °F 54% 30.17 in 10.0 mi NNW 10.4 mph - N/A   Overcast
12:15 PM 41.4 °F 35.7 °F 25.9 °F 54% 30.17 in 10.0 mi North 9.2 mph - N/A   Overcast
12:35 PM 41.4 °F 35.7 °F 26.2 °F 55% 30.17 in 10.0 mi NW 9.2 mph - N/A   Overcast
12:55 PM 41.9 °F 35.9 °F 25.3 °F 52% 30.17 in 10.0 mi NNW 10.4 mph 19.6 mph N/A   Overcast
1:15 PM 41.7 °F 36.7 °F 25.9 °F 53% 30.16 in 10.0 mi NNW 8.1 mph - N/A   Overcast
1:35 PM 41.7 °F 34.8 °F 25.0 °F 52% 30.16 in 10.0 mi NNW 12.7 mph - N/A   Overcast
1:55 PM 41.5 °F 35.4 °F 25.0 °F 52% 30.15 in 10.0 mi NNW 10.4 mph 17.3 mph N/A   Overcast
2:15 PM 41.4 °F 36.2 °F 25.3 °F 53% 30.15 in 10.0 mi NNW 8.1 mph - N/A   Overcast
2:35 PM 41.9 °F 36.3 °F 24.4 °F 50% 30.15 in 10.0 mi NNW 9.2 mph 16.1 mph N/A   Overcast
2:55 PM 42.1 °F 35.2 °F 24.3 °F 49% 30.15 in 10.0 mi NNW 12.7 mph 18.4 mph N/A   Overcast
3:15 PM 42.1 °F 34.5 °F 24.1 °F 49% 30.15 in 10.0 mi NNW 15.0 mph - N/A   Mostly Cloudy
3:35 PM 42.4 °F 37.5 °F 23.7 °F 48% 30.16 in 10.0 mi NNW 8.1 mph 20.7 mph N/A   Mostly Cloudy
3:55 PM 42.6 °F 35.6 °F 23.5 °F 47% 30.16 in 10.0 mi NNW 13.8 mph 19.6 mph N/A   Overcast
4:15 PM 41.5 °F 34.6 °F 23.9 °F 50% 30.16 in 10.0 mi NNW 12.7 mph 18.4 mph N/A   Mostly Cloudy
4:35 PM 41.9 °F 35.4 °F 23.7 °F 49% 30.16 in 10.0 mi NNW 11.5 mph 24.2 mph N/A   Mostly Cloudy
4:55 PM 41.9 °F 35.4 °F 23.5 °F 48% 30.17 in 10.0 mi NNW 11.5 mph 18.4 mph N/A   Unknown
5:15 PM 42.3 °F 36.3 °F 23.9 °F 48% 30.17 in 10.0 mi North 10.4 mph - N/A   Overcast
5:35 PM 41.7 °F 36.7 °F 23.5 °F 49% 30.17 in 10.0 mi NNW 8.1 mph 16.1 mph N/A   Overcast
5:55 PM 40.3 °F 33.4 °F 25.0 °F 54% 30.18 in 10.0 mi NNW 11.5 mph - N/A   Mostly Cloudy
6:15 PM 40.6 °F 34.3 °F 24.6 °F 53% 30.19 in 10.0 mi NNW 10.4 mph - N/A   Mostly Cloudy
6:35 PM 40.5 °F 35.1 °F 24.6 °F 53% 30.20 in 10.0 mi NNW 8.1 mph 17.3 mph N/A   Mostly Cloudy
6:55 PM 39.7 °F 33.7 °F 25.5 °F 57% 30.20 in 10.0 mi NNW 9.2 mph - N/A   Mostly Cloudy
8:35 PM 38.3 °F - 25.9 °F 61% 30.21 in 10.0 mi Calm Calm - N/A   Mostly Cloudy
8:55 PM 37.6 °F - 25.5 °F 62% 30.20 in 10.0 mi Calm Calm - N/A   Scattered Clouds
9:15 PM 37.9 °F - 24.8 °F 59% 30.21 in 10.0 mi Calm Calm - N/A   Clear
9:35 PM 37.8 °F 34.2 °F 24.8 °F 60% 30.21 in 10.0 mi NNE 4.6 mph - N/A   Clear
9:55 PM 37.4 °F 34.9 °F 25.3 °F 62% 30.21 in 10.0 mi North 3.5 mph - N/A   Scattered Clouds
10:15 PM 38.1 °F 35.7 °F 25.7 °F 61% 30.21 in 10.0 mi NW 3.5 mph - N/A   Mostly Cloudy
10:35 PM 37.4 °F 34.9 °F 26.4 °F 65% 30.20 in 10.0 mi NW 3.5 mph - N/A   Overcast
10:55 PM 37.9 °F 35.5 °F 26.4 °F 63% 30.21 in 10.0 mi NNW 3.5 mph - N/A   Overcast
11:15 PM 37.9 °F - 26.6 °F 64% 30.21 in 10.0 mi Calm Calm - N/A   Overcast
11:35 PM 37.8 °F 34.2 °F 26.6 °F 64% 30.21 in 10.0 mi North 4.6 mph - N/A   Overcast
11:55 PM 37.8 °F 35.3 °F 26.2 °F 63% 30.20 in 10.0 mi North 3.5 mph - N/A   Overcast